Regional Weather Roundup
Issued by NWS

Home | Current Version | Previous Version | Text Only | Print | Product List | Glossary Off
Versions: 1 2 3 4 5 6 7 8 9 10 11 12 13 14 15 16 17 18 19 20 21 22 23 24 25 26 27 28 29 30 31 32 33 34 35 36 37 38 39 40 41 42 43 44 45 46 47 48 49 50

000
ASUS43 KMKX 301900
RWRWI

WISCONSIN REGIONAL WEATHER ROUNDUP
NATIONAL WEATHER SERVICE MILWAUKEE/SULLIVAN WI
200 PM CDT THU OCT 30 2014

NOTE: "FAIR" INDICATES FEW OR NO CLOUDS BELOW 12,000 FEET WITH NO
SIGNIFICANT WEATHER AND/OR OBSTRUCTIONS TO VISIBILITY.

WIZ001-002-006>008-014>016-023>028-302000-
NORTHWEST WISCONSIN

CITY           SKY/WX    TMP DP  RH WIND       PRES   REMARKS
SUPERIOR ARPT  CLOUDY    44  32  64 NW9       30.10F
ASHLAND        CLOUDY    42  33  70 NW9       30.07F
HAYWARD        CLOUDY    41  32  70 NW7       30.07F
SIREN          DRIZZLE   40  34  76 NW6       30.10F
CUMBERLAND     DRIZZLE   41  32  70 NW8       30.08F
RICE LAKE      CLOUDY    43  32  64 N7        30.09S
CHETEK         CLOUDY    44  35  68 NW6       30.08S
LADYSMITH      CLOUDY    42  34  72 W7        30.08S
EAU CLAIRE     NOT AVBL
MENOMONIE      CLOUDY    49  34  56 NW10      30.08S
NEW RICHMOND   CLOUDY    47  34  60 N6        30.09F
OSCEOLA        CLOUDY    46  35  65 N9        30.13S
$$

WIZ003>005-009-010-017-018-302000-
NORTH CENTRAL WISCONSIN

CITY           SKY/WX    TMP DP  RH WIND       PRES   REMARKS
MANITOWISH WTR CLOUDY    38  32  79 NW8       30.02F WCI  32
ARBOR VITAE    CLOUDY    39  33  78 W7        30.02F WCI  34
WOODRUFF       CLOUDY    39  33  78 W7        30.02F WCI  34
RHINELANDER    CLOUDY    40  31  70 W8        30.03F WCI  34
EAGLE RIVER    CLOUDY    39  30  71 NW9       30.01F WCI  33
LAND O LAKES   LGT RAIN  38  33  82 NW8       30.02F WCI  32
PHILLIPS       CLOUDY    40  32  75 NW5       30.04S
TOMAHAWK       CLOUDY    42  32  68 CALM      30.04S
MEDFORD        CLOUDY    42  33  71 NW7       30.04F
MERRILL        CLOUDY    43  33  69 CALM      30.03F
$$

WIZ029-030-035-036-043>047-302000-
CENTRAL WISCONSIN

CITY           SKY/WX    TMP DP  RH WIND       PRES   REMARKS
WAUSAU         CLOUDY    45  34  65 W13       30.02F
MOSINEE        NOT AVBL
MARSHFIELD     CLOUDY    47  36  65 NW8       30.04F
STEVENS POINT  CLOUDY    45  33  63 W6        30.04F
WAUPACA        CLOUDY    51  36  55 W6        30.04F
WAUTOMA        NOT AVBL
WISC RAPIDS    CLOUDY    50  35  56 W9        30.05F
CAMP DOUGLAS   NOT AVBL
$$

WIZ011>013-019>022-031-037>040-048>050-302000-
NORTHEAST WISCONSIN

CITY           SKY/WX    TMP DP  RH WIND       PRES   REMARKS
ANTIGO         CLOUDY    42  33  71 NW8       30.02F
SHAWANO        CLOUDY    47  34  62 W10       30.04F
OCONTO         CLOUDY    45  34  65 W8        30.03F
STURGEON BAY   CLOUDY    45  34  65 SW8       30.03F
GREEN BAY      CLOUDY    46  35  65 W9        30.04F
MANITOWOC      NOT AVBL
APPLETON       PTSUNNY   46  34  61 W7        30.04F
CLINTONVILLE   CLOUDY    45  32  61 W8        30.04F
OSHKOSH        PTSUNNY   48  35  60 W7        30.04F
$$

WIZ032>034-041-042-053>061-302000-
SOUTHWEST WISCONSIN

CITY           SKY/WX    TMP DP  RH WIND       PRES   REMARKS
LA CROSSE      CLOUDY    46  37  71 CALM      30.07F
SPARTA         CLOUDY    46  35  65 SW6       30.07F
VIROQUA        CLOUDY    44  35  72 W3        30.06F
BOSCOBEL       CLOUDY    50  36  58 VRB3      30.07F
PRAIRIE DU CHI CLOUDY    47  36  63 CALM      30.07F
PLATTEVILLE    CLOUDY    49  37  64 SW3       30.07F
$$

WIZ056-057-062-063-064-067-068-302000-
SOUTH CENTRAL WISCONSIN

CITY           SKY/WX    TMP DP  RH WIND       PRES   REMARKS
REEDSBURG      CLOUDY    46  35  66 SW6       30.06F
BARABOO/DELLS  CLOUDY    46  34  62 W6        30.06F
LONE ROCK      NOT AVBL
MINERAL POINT  CLOUDY    50  34  53 CALM      30.06F
MADISON        CLOUDY    50  35  56 SW7       30.05F
MIDDLETON      CLOUDY    51  33  51 W6        30.06F
WATERTOWN      CLOUDY    49  35  58 W6        30.05F
MONROE         CLOUDY    50  36  57 W6        30.05F
JANESVILLE     CLOUDY    52  34  50 W6        30.05F
$$

WIZ051-052-058>065-066-070>072-302000-
SOUTHEAST WISCONSIN

CITY           SKY/WX    TMP DP  RH WIND       PRES   REMARKS
MILWAUKEE      PTSUNNY   50  32  50 W12       30.06F
WAUKESHA       PTSUNNY   48  34  57 W9        30.06F
MILWAUKEE/TIMM MOSUNNY   48  32  53 W10       30.06F
RACINE         PTSUNNY   51  34  52 SW8       30.07F
BURLINGTON     PTSUNNY   49  33  54 W8        30.06F
KENOSHA        PTSUNNY   51  35  54 W12       30.06F
FOND DU LAC    MOSUNNY   51  34  52 NW12      30.04F
SHEBOYGAN      CLOUDY    50  34  54 W9        30.04F
WEST BEND      PTSUNNY   50  32  50 W8        30.05F
JUNEAU         PTSUNNY   47  34  60 W6        30.07F
$$

LSZ147-162-302000-
LAKE SUPERIOR

STATION/POSITION TIME  TEMP    WIND        PRES    WAVE
                       AIR SEA DIR/SP/G            HT/PER
                 (UTC) (F)     (DEG/KT/KT) (MB)    (FT/S)
W MID LAKE BUOY  1750   41 45  350/ 10/ 12 1017.5S   1/ 3
DEVILS ISLAND    1800   42     300/ 12/ 14 1018.7S
PORT WING        1800   41     300/ 12/ 16 1019.0S
SAXON HARBOR     1800   42     260/  2/  6 1017.9F
$$

LMZ867-665-643>646-302000-
LAKE MICHIGAN

STATION/POSITION TIME  TEMP    WIND        PRES    WAVE
                       AIR SEA DIR/SP/G            HT/PER
                 (UTC) (F)     (DEG/KT/KT) (MB)    (FT/S)
CHAMBERS ISLAND  1800   46     230/  7/ 12 1017.3F
N MID LAKE BUOY  1750   45 51  250/ 14/ 16 1017.0F   1/ 3
NORTHPORT PIER   1800   46     280/  7/ 13 1016.9F
KEWAUNEE LAKESHO 1800   46     270/  8/ 12 1016.7
SHEBOYGAN LAKESH 1800   48 50  280/  7/  8 1018.5F
PORT WASHINGTON  1840   51     280/ 10/ 13 1018.3F
ATWATER BUOY     1800   49     250/ 10/ 12 1019.4F
MILWAUKEE LAKESH 1800   48     280/ 10/ 15   N/A
S MID LAKE BUOY  1750   47 53  240/ 12/ 16 1019.4F   2/ 3
KENOSHA   LAKESH 1800   49     240/  9/ 14 1018.6F
$$

TC  - TEMPERATURE IN CELSIUS
VSB - VISIBILITY IN STATUTE MILES
WCI - WIND CHILL INDEX
HX  - HEAT INDEX




USA.gov is the U.S. government's official web portal to all federal, state and local government web resources and services.